Location: ?a Cao 2
(12.1463°N, 108.2502°E)
Time: 19:12:56
(UTC+00:00)

Daily predictions for brighter satellites

Satellite Brightness Start Highest point End
(mag) Time Altitude Azimuth Time Altitude Azimuth Time Altitude Azimuth
Longmarch 3A Rocket 2.8 12:08:50 10° NW 12:12:05 64° NNE 12:12:05 64° NNE
Cosmos 1386 Rocket 4.4 12:06:27 10° N 12:12:48 89° W 12:19:03 10° S
Cosmos 2219 3.8 12:08:43 10° N 12:12:29 42° N 12:12:29 42° N
Sea Lan Dem Rocket 4.2 12:17:35 10° SW 12:19:52 21° S 12:19:52 21° S
Cosmos 2315 Rocket 4.4 12:16:30 10° SSW 12:22:39 61° W 12:28:45 10° N
SEDSat Delta rocket 4.2 12:20:03 10° WSW 12:26:34 55° NNW 12:26:44 55° NNW
CZ-4 R/B 4.0 12:27:22 10° SW 12:30:14 19° W 12:33:04 10° NW
SL-16 R/B 4.0 12:27:45 10° S 12:29:30 21° S 12:29:30 21° S
CZ-2C R/B 3.9 12:43:43 36° WNW 12:44:11 37° WNW 12:49:00 10° SW
H-2A R/B 4.0 12:39:42 10° S 12:47:30 23° NW 12:49:41 10° NNW
ATLAS 3B R/B 3.7 20:20:30 32° NNE 20:20:30 32° NNE 20:23:48 10° NNE
Cosmos 1634 Rocket 4.0 20:31:56 78° SE 20:31:56 78° SE 20:37:52 10° S
ALOS 4.3 20:29:09 10° NE 20:33:05 27° E 20:37:00 10° SSE
H-II Stage 2 4.0 20:36:08 83° W 20:36:23 87° NNW 20:40:00 10° ENE
H-2A R/B 4.1 20:33:09 10° SE 20:36:55 27° ENE 20:40:25 11° NNE
Meteor 2-10 4.1 20:42:52 76° SSE 20:42:52 76° SSE 20:48:01 10° S
Delta 7925 Rocket 4.4 20:58:00 46° WSW 20:59:14 51° SSW 21:06:57 10° SE
ARIANE 5 DEB (SYLDA) 4.0 21:00:28 31° S 21:00:49 32° SSE 21:06:46 10° E
Landsat 5 3.6 20:58:11 10° SSE 21:02:21 71° E 21:03:20 49° N
FUSE 3.8 21:02:07 63° NW 21:02:27 65° NNW 21:07:43 10° ENE
Cosmos 1110 Rocket 4.1 21:00:29 21° N 21:03:59 72° ENE 21:09:08 10° SSE
ADEOS 3.5 21:00:40 10° NNE 21:05:53 88° ESE 21:11:07 10° SSW
Cosmos 44 4.1 21:07:34 39° SW 21:07:34 39° SW 21:11:47 10° S
Meteor 1-24 Rocket 4.2 21:01:42 10° S 21:07:00 58° E 21:12:28 10° NNE
GPS 2-17 Rocket1 4.0 21:06:45 33° N 21:07:06 34° N 21:11:19 10° ENE
PSLV R/B 3.7 21:09:52 57° NW 21:10:40 76° NNE 21:22:22 10° E
deb Chang Zheng 4 3.5 21:07:42 10° NNE 21:11:57 82° ESE 21:16:14 10° S
Cosmos 1092 Rocket 4.4 21:06:52 10° S 21:12:54 64° E 21:18:59 10° NNE
Cosmos 1356 Rocket 3.2 21:13:13 36° NNW 21:14:51 81° W 21:18:56 10° S
Cosmos 2082 Rocket 2.3 21:14:25 30° SW 21:16:44 46° WNW 21:22:05 10° N
SL-14 R/B 3.1 21:13:44 10° S 21:17:38 85° W 21:21:35 10° N
Nadezhda 4 Rocket 3.9 21:12:29 10° SSW 21:18:30 58° W 21:24:29 10° N
Cosmos 1908 3.5 21:17:21 10° N 21:21:14 66° E 21:25:05 10° SSE
Delta 168 3.5 21:21:11 29° N 21:21:45 32° NNE 21:25:07 10° E
SEDSat Delta rocket 3.1 21:21:36 44° WSW 21:22:09 47° SSW 21:26:02 10° SE
Meteor 2-13 Rocket 4.4 21:16:28 10° S 21:22:38 83° W 21:28:46 10° N
CZ-3 R/B 4.0 21:10:47 25° WNW 21:25:42 43° NNW 21:34:34 10° NE
METEOR-M 4.0 21:25:46 10° N 21:31:03 70° WNW 21:36:21 10° SSW
SL-19 R/B 3.6 21:28:13 10° N 21:31:08 64° WNW 21:34:24 10° SSW
Orbus 21S 3.8 21:31:01 21° SW 21:31:18 21° SW 21:33:26 10° SSE
SJ-12 4.1 21:28:48 10° NNE 21:32:52 71° ESE 21:36:54 10° S
CZ-2C R/B 3.3 21:31:27 10° N 21:32:54 12° NNE 21:34:21 10° NE
Meteor 2-5 Rocket 3.8 21:27:47 10° SSW 21:33:09 49° W 21:38:37 10° N
Cosmos 292 Rocket 3.7 21:29:13 10° NNW 21:34:03 80° WSW 21:38:53 10° S
Meteor 1-16 Rocket 4.1 21:29:43 10° NNW 21:34:55 57° W 21:40:14 10° S
Cosmos 1626 4.3 21:32:24 10° SSW 21:40:13 - NNW 21:32:49 12° SW
Cosmos 2180 Rocket 4.5 21:30:53 10° NNW 21:36:54 56° W 21:42:52 10° S
Cosmos 1953 3.1 21:37:22 28° W 21:37:39 29° W 21:41:10 10° SSW
Cosmos 1656 4.2 21:32:27 10° N 21:38:04 62° ENE 21:43:36 10° SSE
Maqsat-B 3.5 21:42:45 16° WSW 21:45:14 44° S 21:50:54 10° E
Sakura Rocket 4.3 21:36:48 10° WSW 21:45:35 87° SSE 21:51:46 10° ENE
ARGOS Delta rocket 4.1 21:42:07 10° N 21:47:33 68° W 21:52:56 10° SSW
Cosmos 1484 Rocket 4.1 21:51:42 10° NNW 21:54:19 18° WNW 21:56:56 10° WSW
GPS 2-15 Rocket1 3.4 21:51:05 12° WSW 21:55:42 75° SSE 22:00:38 10° ENE
CZ-4B R/B 1.4 21:53:04 10° S 21:56:30 84° W 21:59:57 10° NNW
Cosmos 614 Rocket 4.1 21:52:35 10° SSW 21:57:36 51° WNW 22:02:36 10° N
Cosmos 1697 Rocket 3.9 21:53:29 10° N 21:58:52 45° ENE 22:04:13 10° SE
H-2A R/B 3.8 21:58:08 10° NNE 22:01:53 51° E 22:05:40 10° S
Cosmos 1726 Rocket 4.0 22:00:02 10° N 22:04:27 68° E 22:08:52 10° SSE
Maqsat-H 2.6 22:01:53 10° WSW 22:05:14 48° S 22:11:48 10° E
COSMO-SKYMED 1 3.5 22:05:20 10° SSE 22:09:32 51° ENE 22:13:44 10° N
CZ-4B R/B 3.5 22:05:50 10° N 22:09:46 38° WNW 22:13:52 10° SW
ATLAS CENTAUR R/B 1.5 22:06:02 10° SW 22:10:10 51° WNW 22:14:03 10° N
ALOS 3.8 22:07:27 10° NW 22:10:10 16° WNW 22:12:54 10° WSW
SL-27 R/B 3.2 22:08:29 10° S 22:11:57 59° E 22:15:28 10° NNE
H-2A R/B 3.8 22:10:10 10° SW 22:12:40 15° W 22:15:09 10° WNW
Stardust Del rocket 4.1 22:11:38 10° WNW 22:14:06 30° N 22:18:01 10° NE
Cosmos 2228 3.1 22:10:15 10° NNW 22:14:31 56° W 22:18:50 10° S
Centaur AC-116 4.2 22:05:49 10° W 22:15:34 39° NW 22:18:39 10° NE
Cosmos 2026 Rocket 4.4 22:09:47 10° SSW 22:15:42 42° W 22:21:40 10° NNW
X-37B 2.3 22:12:57 10° SSW 22:15:54 37° SE 22:18:52 10° ENE
Cosmos 1023 Rocket 4.4 22:11:01 10° SSW 22:16:05 70° WNW 22:21:09 10° N
Meteor PRIRODA 4.3 22:13:16 10° NNW 22:16:32 31° WNW 22:19:50 10° SW
Cosmos 1190 Rocket 4.0 22:11:40 10° SSW 22:16:56 74° WNW 22:22:09 10° N
ADEOS Rocket 4.1 22:15:25 10° SW 22:19:23 19° WSW 22:23:14 10° WNW
Cosmos 1606 Rocket 3.8 22:15:23 10° NNW 22:19:43 52° W 22:24:02 10° S
Cosmos 1980 Rocket 4.1 22:16:02 10° N 22:21:01 33° ENE 22:26:00 10° SE
Cosmos 2098 Rocket 4.2 22:16:55 10° S 22:24:09 88° W 22:30:19 10° N
